owner,sensor,date,latitude,longitude,vertical_datum,wind_speed,wind_to_direction,wind_speed_of_gust,qcFlag 
TABS,ioos:station:wmo:42045:1,2009-12-01T00:00:00Z,26.2168,-96.4998,4.0,10.73447716,35.2147351,12.75,'11111222,11111222,11111222' 
TABS,ioos:station:wmo:42045:1,2009-12-01T00:30:00Z,26.2168,-96.4998,4.0,11.39105351,42.18879306,13.5,'11111222,11111222,11111222' 
TABS,ioos:station:wmo:42045:1,2009-12-01T01:00:00Z,26.2168,-96.4998,4.0,10.98345119,54.9349902,12.89,'11111222,11111222,11111222' 
TABS,ioos:station:wmo:42045:1,2009-12-01T01:30:00Z,26.2168,-96.4998,4.0,10.09003469,56.15209858,11.87,'11111222,11111222,11111222' 
TABS,ioos:station:wmo:42045:1,2009-12-01T02:00:00Z,26.2168,-96.4998,4.0,9.950140703,60.0333567,12.15,'11111222,11111222,11111222' 
TABS,ioos:station:wmo:42045:1,2009-12-01T02:30:00Z,26.2168,-96.4998,4.0,9.908486262,57.32001908,11.66,'11111222,11111222,11111222' 
TABS,ioos:station:wmo:42045:1,2009-12-01T03:00:00Z,26.2168,-96.4998,4.0,9.302607161,57.77882548,11.44,'11111222,11111222,11111222' 
TABS,ioos:station:wmo:42045:1,2009-12-01T03:30:00Z,26.2168,-96.4998,4.0,9.267389061,61.44346223,11.09,'11111222,11111222,11111222' 
TABS,ioos:station:wmo:42045:1,2009-12-01T04:00:00Z,26.2168,-96.4998,4.0,9.617302116,67.8884576,11.47,'11111222,11111222,11111222' 
TABS,ioos:station:wmo:42045:1,2009-12-01T04:30:00Z,26.2168,-96.4998,4.0,8.600581376,66.71356862,10.09,'11111222,11111222,11111222' 
TABS,ioos:station:wmo:42045:1,2009-12-01T05:00:00Z,26.2168,-96.4998,4.0,8.705659079,65.78989565,10.36,'11111222,11111222,11111222' 
TABS,ioos:station:wmo:42045:1,2009-12-01T05:30:00Z,26.2168,-96.4998,4.0,8.965288618,60.4608659,10.96,'11111222,11111222,11111222' 
TABS,ioos:station:wmo:42045:1,2009-12-01T06:00:00Z,26.2168,-96.4998,4.0,9.348502554,59.31969055,11.46,'11111222,11111222,11111222' 
TABS,ioos:station:wmo:42045:1,2009-12-01T06:30:00Z,26.2168,-96.4998,4.0,8.315683977,44.70736213,10.08,'11111222,11111222,11111222' 
TABS,ioos:station:wmo:42045:1,2009-12-01T07:00:00Z,26.2168,-96.4998,4.0,9.736385366,39.24769996,11.95,'11111222,11111222,11111222' 
TABS,ioos:station:wmo:42045:1,2009-12-01T07:30:00Z,26.2168,-96.4998,4.0,9.8400813,40.878876,11.7,'11111222,11111222,11111222' 
TABS,ioos:station:wmo:42045:1,2009-12-01T08:00:00Z,26.2168,-96.4998,4.0,9.266336925,40.27236278,11.57,'11111222,11111222,11111222' 
TABS,ioos:station:wmo:42045:1,2009-12-01T08:30:00Z,26.2168,-96.4998,4.0,9.843236256,26.35652637,12.56,'11111222,11111222,11111222' 
TABS,ioos:station:wmo:42045:1,2009-12-01T09:00:00Z,26.2168,-96.4998,4.0,10.40085093,32.31458014,12.76,'11111222,11111222,11111222' 
TABS,ioos:station:wmo:42045:1,2009-12-01T09:30:00Z,26.2168,-96.4998,4.0,10.61007069,40.56584573,13.17,'11111222,11111222,11111222' 
TABS,ioos:station:wmo:42045:1,2009-12-01T10:00:00Z,26.2168,-96.4998,4.0,11.02568365,34.46808635,13.52,'11111222,11111222,11111222' 
TABS,ioos:station:wmo:42045:1,2009-12-01T10:30:00Z,26.2168,-96.4998,4.0,9.722720813,44.95801476,12.14,'11111222,11111222,11111222' 
TABS,ioos:station:wmo:42045:1,2009-12-01T11:00:00Z,26.2168,-96.4998,4.0,9.832120829,50.52985762,11.78,'11111222,11111222,11111222' 
TABS,ioos:station:wmo:42045:1,2009-12-01T11:30:00Z,26.2168,-96.4998,4.0,8.67239298,35.04585188,11.21,'11111222,11111222,11111222' 
TABS,ioos:station:wmo:42045:1,2009-12-01T12:00:00Z,26.2168,-96.4998,4.0,9.275020216,39.66289876,11.71,'11111222,11111222,11111222' 
TABS,ioos:station:wmo:42045:1,2009-12-01T12:30:00Z,26.2168,-96.4998,4.0,10.01217259,47.99545047,12.22,'11111222,11111222,11111222' 
TABS,ioos:station:wmo:42045:1,2009-12-01T13:00:00Z,26.2168,-96.4998,4.0,10.1591978,54.00960799,12.37,'11111222,11111222,11111222' 
TABS,ioos:station:wmo:42045:1,2009-12-01T13:30:00Z,26.2168,-96.4998,4.0,10.19937743,74.53263764,12.89,'11111222,11111222,11111222' 
TABS,ioos:station:wmo:42045:1,2009-12-01T14:00:00Z,26.2168,-96.4998,4.0,9.497962939,69.21764833,11.18,'11111222,11111222,11111222' 
TABS,ioos:station:wmo:42045:1,2009-12-01T14:30:00Z,26.2168,-96.4998,4.0,10.8728837,72.33123603,13.14,'11111222,11111222,11111222' 
TABS,ioos:station:wmo:42045:1,2009-12-01T15:00:00Z,26.2168,-96.4998,4.0,9.128701989,57.98096471,11.2,'11111222,11111222,11111222' 
TABS,ioos:station:wmo:42045:1,2009-12-01T15:30:00Z,26.2168,-96.4998,4.0,7.312215806,38.28015262,10.18,'11111222,11111222,11111222' 
TABS,ioos:station:wmo:42045:1,2009-12-01T16:00:00Z,26.2168,-96.4998,4.0,10.1246679,72.76375109,13.37,'11111222,11111222,11111222' 
TABS,ioos:station:wmo:42045:1,2009-12-01T16:30:00Z,26.2168,-96.4998,4.0,10.01552794,82.07984311,13.75,'11111222,11111222,11111222' 
TABS,ioos:station:wmo:42045:1,2009-12-01T17:00:00Z,26.2168,-96.4998,4.0,12.34117093,89.21030488,15.05,'11111222,11111222,11111222' 
TABS,ioos:station:wmo:42045:1,2009-12-01T17:30:00Z,26.2168,-96.4998,4.0,12.59829354,99.91880355,16.44,'11111222,11111222,11111222' 
TABS,ioos:station:wmo:42045:1,2009-12-01T18:00:00Z,26.2168,-96.4998,4.0,11.2044634,102.4737341,14.09,'11111222,11111222,11111222' 
TABS,ioos:station:wmo:42045:1,2009-12-01T18:30:00Z,26.2168,-96.4998,4.0,10.63583565,105.8791825,13.11,'11111222,11111222,11111222' 
TABS,ioos:station:wmo:42045:1,2009-12-01T19:00:00Z,26.2168,-96.4998,4.0,9.809485206,108.1767407,12.46,'11111222,11111222,11111222' 
TABS,ioos:station:wmo:42045:1,2009-12-01T19:30:00Z,26.2168,-96.4998,4.0,9.778471251,106.8230958,12.23,'11111222,11111222,11111222' 
TABS,ioos:station:wmo:42045:1,2009-12-01T20:00:00Z,26.2168,-96.4998,4.0,10.33356183,115.2014856,12.68,'11111222,11111222,11111222' 
TABS,ioos:station:wmo:42045:1,2009-12-01T20:30:00Z,26.2168,-96.4998,4.0,9.691418885,114.7672453,11.75,'11111222,11111222,11111222' 
TABS,ioos:station:wmo:42045:1,2009-12-01T21:00:00Z,26.2168,-96.4998,4.0,8.682194423,109.5831732,10.48,'11111222,11111222,11111222' 
TABS,ioos:station:wmo:42045:1,2009-12-01T21:30:00Z,26.2168,-96.4998,4.0,11.90170156,301.8471181,14.68,'11111222,11111222,11111222' 
TABS,ioos:station:wmo:42045:1,2009-12-01T22:00:00Z,26.2168,-96.4998,4.0,10.95102735,307.6546342,13.45,'11111222,11111222,11111222' 
TABS,ioos:station:wmo:42045:1,2009-12-01T22:30:00Z,26.2168,-96.4998,4.0,11.46586674,313.5510233,14.53,'11111222,11111222,11111222' 
TABS,ioos:station:wmo:42045:1,2009-12-01T23:00:00Z,26.2168,-96.4998,4.0,12.722991,313.9490086,14.86,'11111222,11111222,11111222' 
TABS,ioos:station:wmo:42045:1,2009-12-01T23:30:00Z,26.2168,-96.4998,4.0,13.09447593,319.9253988,16.32,'11111222,11111222,11111222' 
TABS,ioos:station:wmo:42045:1,2009-12-02T00:00:00Z,26.2168,-96.4998,4.0,14.56950583,318.3108285,17.81,'11111222,11111222,11111222' 
TABS,ioos:station:wmo:42045:1,2009-12-02T00:30:00Z,26.2168,-96.4998,4.0,14.07884228,322.503243,17.35,'11111222,11111222,11111222' 
TABS,ioos:station:wmo:42045:1,2009-12-02T01:00:00Z,26.2168,-96.4998,4.0,13.04546281,327.8082605,15.76,'11111222,11111222,11111222' 
TABS,ioos:station:wmo:42045:1,2009-12-02T01:30:00Z,26.2168,-96.4998,4.0,13.19549165,318.809876,16.62,'11111222,11111222,11111222' 
TABS,ioos:station:wmo:42045:1,2009-12-02T02:00:00Z,26.2168,-96.4998,4.0,10.4067382,333.2132026,12.57,'11111222,11111222,11111222' 
TABS,ioos:station:wmo:42045:1,2009-12-02T02:30:00Z,26.2168,-96.4998,4.0,9.492281075,328.0008793,11.81,'11111222,11111222,11111222' 
TABS,ioos:station:wmo:42045:1,2009-12-02T03:00:00Z,26.2168,-96.4998,4.0,9.772717125,319.3985898,12.61,'11111222,11111222,11111222' 
TABS,ioos:station:wmo:42045:1,2009-12-02T03:30:00Z,26.2168,-96.4998,4.0,10.59344137,327.2548907,12.85,'11111222,11111222,11111222' 
TABS,ioos:station:wmo:42045:1,2009-12-02T04:00:00Z,26.2168,-96.4998,4.0,9.466324524,325.8061896,12.65,'11111222,11111222,11111222' 
TABS,ioos:station:wmo:42045:1,2009-12-02T04:30:00Z,26.2168,-96.4998,4.0,9.224668016,326.3614806,11.89,'11111222,11111222,11111222' 
TABS,ioos:station:wmo:42045:1,2009-12-02T05:00:00Z,26.2168,-96.4998,4.0,8.19339368,320.695714,10.33,'11111222,11111222,11111222' 
TABS,ioos:station:wmo:42045:1,2009-12-02T05:30:00Z,26.2168,-96.4998,4.0,9.117439333,324.1480691,12.06,'11111222,11111222,11111222' 
TABS,ioos:station:wmo:42045:1,2009-12-02T06:00:00Z,26.2168,-96.4998,4.0,8.620121809,315.6108998,11.66,'11111222,11111222,11111222' 
TABS,ioos:station:wmo:42045:1,2009-12-02T06:30:00Z,26.2168,-96.4998,4.0,7.272578635,316.7828411,9.93,'11111222,11111222,11111222' 
TABS,ioos:station:wmo:42045:1,2009-12-02T07:00:00Z,26.2168,-96.4998,4.0,7.646705173,326.6838693,10.05,'11111222,11111222,11111222' 
TABS,ioos:station:wmo:42045:1,2009-12-02T07:30:00Z,26.2168,-96.4998,4.0,7.530770213,321.0905485,10.36,'11111222,11111222,11111222' 
TABS,ioos:station:wmo:42045:1,2009-12-02T08:00:00Z,26.2168,-96.4998,4.0,8.410291315,323.6068631,10.93,'11111222,11111222,11111222' 
TABS,ioos:station:wmo:42045:1,2009-12-02T08:30:00Z,26.2168,-96.4998,4.0,8.471328113,314.6172918,10.27,'11111222,11111222,11111222' 
TABS,ioos:station:wmo:42045:1,2009-12-02T09:00:00Z,26.2168,-96.4998,4.0,9.731197254,321.2573144,11.83,'11111222,11111222,11111222' 
TABS,ioos:station:wmo:42045:1,2009-12-02T09:30:00Z,26.2168,-96.4998,4.0,9.398217916,315.7327562,11.66,'11111222,11111222,11111222' 
TABS,ioos:station:wmo:42045:1,2009-12-02T10:00:00Z,26.2168,-96.4998,4.0,8.837239388,320.5097581,11.52,'11111222,11111222,11111222' 
TABS,ioos:station:wmo:42045:1,2009-12-02T10:30:00Z,26.2168,-96.4998,4.0,8.335046491,321.136097,10.62,'11111222,11111222,11111222' 
TABS,ioos:station:wmo:42045:1,2009-12-02T11:00:00Z,26.2168,-96.4998,4.0,8.421163815,324.0825495,11.39,'11111222,11111222,11111222' 
TABS,ioos:station:wmo:42045:1,2009-12-02T11:30:00Z,26.2168,-96.4998,4.0,8.607514159,329.0246897,10.87,'11111222,11111222,11111222' 
TABS,ioos:station:wmo:42045:1,2009-12-02T12:00:00Z,26.2168,-96.4998,4.0,8.191507798,329.8038403,10.1,'11111222,11111222,11111222' 
TABS,ioos:station:wmo:42045:1,2009-12-02T12:30:00Z,26.2168,-96.4998,4.0,6.923503448,325.4146292,9.44,'11111222,11111222,11111222' 
TABS,ioos:station:wmo:42045:1,2009-12-02T13:00:00Z,26.2168,-96.4998,4.0,7.216100055,322.8282577,9.62,'11111222,11111222,11111222' 
TABS,ioos:station:wmo:42045:1,2009-12-02T13:30:00Z,26.2168,-96.4998,4.0,6.793121521,328.7902029,8.72,'11111222,11111222,11111222' 
TABS,ioos:station:wmo:42045:1,2009-12-02T14:00:00Z,26.2168,-96.4998,4.0,7.437909653,328.9172075,9.5,'11111222,11111222,11111222' 
TABS,ioos:station:wmo:42045:1,2009-12-02T14:30:00Z,26.2168,-96.4998,4.0,6.790913046,330.1503283,8.61,'11111222,11111222,11111222' 
TABS,ioos:station:wmo:42045:1,2009-12-02T15:00:00Z,26.2168,-96.4998,4.0,7.286425736,328.0111514,9.51,'11111222,11111222,11111222' 
TABS,ioos:station:wmo:42045:1,2009-12-02T15:30:00Z,26.2168,-96.4998,4.0,6.963289453,333.8395799,8.52,'11111222,11111222,11111222' 
TABS,ioos:station:wmo:42045:1,2009-12-02T16:00:00Z,26.2168,-96.4998,4.0,6.954494949,325.1900843,9.13,'11111222,11111222,11111222' 
TABS,ioos:station:wmo:42045:1,2009-12-02T16:30:00Z,26.2168,-96.4998,4.0,6.450193796,327.6649289,8.07,'11111222,11111222,11111222' 
TABS,ioos:station:wmo:42045:1,2009-12-02T17:00:00Z,26.2168,-96.4998,4.0,6.31478424,314.4224666,8.53,'11111222,11111222,11111222' 
TABS,ioos:station:wmo:42045:1,2009-12-02T17:30:00Z,26.2168,-96.4998,4.0,7.102239084,320.3699061,8.95,'11111222,11111222,11111222' 
TABS,ioos:station:wmo:42045:1,2009-12-02T18:00:00Z,26.2168,-96.4998,4.0,7.789152714,322.1442489,9.94,'11111222,11111222,11111222' 
TABS,ioos:station:wmo:42045:1,2009-12-02T18:30:00Z,26.2168,-96.4998,4.0,8.315148826,317.2904995,10.79,'11111222,11111222,11111222' 
TABS,ioos:station:wmo:42045:1,2009-12-02T19:00:00Z,26.2168,-96.4998,4.0,9.357104253,329.3511443,11.31,'11111222,11111222,11111222' 
TABS,ioos:station:wmo:42045:1,2009-12-02T19:30:00Z,26.2168,-96.4998,4.0,9.606149072,333.4081265,11.85,'11111222,11111222,11111222' 
TABS,ioos:station:wmo:42045:1,2009-12-02T20:00:00Z,26.2168,-96.4998,4.0,8.944299861,333.5780393,10.8,'11111222,11111222,11111222' 
TABS,ioos:station:wmo:42045:1,2009-12-02T20:30:00Z,26.2168,-96.4998,4.0,8.595591894,329.287601,12.1,'11111222,11111222,11111222' 
TABS,ioos:station:wmo:42045:1,2009-12-02T21:00:00Z,26.2168,-96.4998,4.0,9.221388182,320.54435,11.36,'11111222,11111222,11111222' 
TABS,ioos:station:wmo:42045:1,2009-12-02T21:30:00Z,26.2168,-96.4998,4.0,9.663482809,326.9511432,12.24,'11111222,11111222,11111222' 
TABS,ioos:station:wmo:42045:1,2009-12-02T22:00:00Z,26.2168,-96.4998,4.0,10.01312139,333.358031,12.85,'11111222,11111222,11111222' 
TABS,ioos:station:wmo:42045:1,2009-12-02T22:30:00Z,26.2168,-96.4998,4.0,9.117653207,331.8608314,11.18,'11111222,11111222,11111222' 
TABS,ioos:station:wmo:42045:1,2009-12-02T23:00:00Z,26.2168,-96.4998,4.0,10.42982742,325.3498838,13.46,'11111222,11111222,11111222' 
TABS,ioos:station:wmo:42045:1,2009-12-02T23:30:00Z,26.2168,-96.4998,4.0,10.43805537,329.6762536,12.88,'11111222,11111222,11111222' 
TABS,ioos:station:wmo:42045:1,2009-12-03T00:00:00Z,26.2168,-96.4998,4.0,10.18039783,335.4487626,12.91,'11111222,11111222,11111222' 
TABS,ioos:station:wmo:42045:1,2009-12-03T00:30:00Z,26.2168,-96.4998,4.0,10.82846711,347.9531028,13.64,'11111222,11111222,11111222' 
TABS,ioos:station:wmo:42045:1,2009-12-03T01:00:00Z,26.2168,-96.4998,4.0,10.15236426,344.2249763,13.02,'11111222,11111222,11111222' 
TABS,ioos:station:wmo:42045:1,2009-12-03T01:30:00Z,26.2168,-96.4998,4.0,10.31932653,350.5740009,12.94,'11111222,11111222,11111222' 
TABS,ioos:station:wmo:42045:1,2009-12-03T02:00:00Z,26.2168,-96.4998,4.0,11.20482485,351.7901591,14.65,'11111222,11111222,11111222' 
TABS,ioos:station:wmo:42045:1,2009-12-03T02:30:00Z,26.2168,-96.4998,4.0,10.92593245,1.887973133,13.34,'11111222,11111222,11111222' 
TABS,ioos:station:wmo:42045:1,2009-12-03T03:00:00Z,26.2168,-96.4998,4.0,11.06780918,9.989752961,13.7,'11111222,11111222,11111222' 
TABS,ioos:station:wmo:42045:1,2009-12-03T03:30:00Z,26.2168,-96.4998,4.0,11.08643315,15.75347715,13.27,'11111222,11111222,11111222' 
TABS,ioos:station:wmo:42045:1,2009-12-03T04:00:00Z,26.2168,-96.4998,4.0,11.28779872,20.10427498,13.93,'11111222,11111222,11111222' 
TABS,ioos:station:wmo:42045:1,2009-12-03T04:30:00Z,26.2168,-96.4998,4.0,10.92990393,26.51789183,14.19,'11111222,11111222,11111222' 
TABS,ioos:station:wmo:42045:1,2009-12-03T05:00:00Z,26.2168,-96.4998,4.0,10.79448933,31.43683016,13.23,'11111222,11111222,11111222' 
TABS,ioos:station:wmo:42045:1,2009-12-03T05:30:00Z,26.2168,-96.4998,4.0,11.22802298,31.04223653,14.1,'11111222,11111222,11111222' 
TABS,ioos:station:wmo:42045:1,2009-12-03T06:00:00Z,26.2168,-96.4998,4.0,9.926958245,40.2191074,12.42,'11111222,11111222,11111222' 
TABS,ioos:station:wmo:42045:1,2009-12-03T06:30:00Z,26.2168,-96.4998,4.0,9.494345686,39.27212049,13.05,'11111222,11111222,11111222' 
TABS,ioos:station:wmo:42045:1,2009-12-03T07:00:00Z,26.2168,-96.4998,4.0,7.939452122,31.76796108,10.33,'11111222,11111222,11111222' 
TABS,ioos:station:wmo:42045:1,2009-12-03T07:30:00Z,26.2168,-96.4998,4.0,7.160174579,30.64783618,9.5,'11111222,11111222,11111222' 
TABS,ioos:station:wmo:42045:1,2009-12-03T08:00:00Z,26.2168,-96.4998,4.0,6.920007225,36.95239809,9.69,'11111222,11111222,11111222' 
TABS,ioos:station:wmo:42045:1,2009-12-03T08:30:00Z,26.2168,-96.4998,4.0,6.202910607,24.37488655,8.89,'11111222,11111222,11111222' 
TABS,ioos:station:wmo:42045:1,2009-12-03T09:00:00Z,26.2168,-96.4998,4.0,5.509818509,26.983327,8.13,'11111222,11111222,11111222' 
TABS,ioos:station:wmo:42045:1,2009-12-03T09:30:00Z,26.2168,-96.4998,4.0,5.509718686,15.47376605,7.56,'11111222,11111222,11111222' 
TABS,ioos:station:wmo:42045:1,2009-12-03T10:00:00Z,26.2168,-96.4998,4.0,6.637122871,31.31879094,8.47,'11111222,11111222,11111222' 
TABS,ioos:station:wmo:42045:1,2009-12-03T10:30:00Z,26.2168,-96.4998,4.0,7.088420134,31.55955977,9.1,'11111222,11111222,11111222' 
TABS,ioos:station:wmo:42045:1,2009-12-03T11:00:00Z,26.2168,-96.4998,4.0,6.906981975,17.70017594,9.38,'11111222,11111222,11111222' 
TABS,ioos:station:wmo:42045:1,2009-12-03T11:30:00Z,26.2168,-96.4998,4.0,6.888889606,29.76523349,8.55,'11111222,11111222,11111222' 
TABS,ioos:station:wmo:42045:1,2009-12-03T12:00:00Z,26.2168,-96.4998,4.0,5.575742103,31.58029007,8.62,'11111222,11111222,11111222' 
TABS,ioos:station:wmo:42045:1,2009-12-03T12:30:00Z,26.2168,-96.4998,4.0,5.139046604,25.71712419,6.86,'11111222,11111222,11111222' 
TABS,ioos:station:wmo:42045:1,2009-12-03T13:00:00Z,26.2168,-96.4998,4.0,6.278423369,32.24693188,8.41,'11111222,11111222,11111222' 
TABS,ioos:station:wmo:42045:1,2009-12-03T13:30:00Z,26.2168,-96.4998,4.0,6.028863906,27.24481367,7.62,'11111222,11111222,11111222' 
TABS,ioos:station:wmo:42045:1,2009-12-03T14:00:00Z,26.2168,-96.4998,4.0,6.429751162,24.73130608,8.68,'11111222,11111222,11111222' 
TABS,ioos:station:wmo:42045:1,2009-12-03T14:30:00Z,26.2168,-96.4998,4.0,7.060063739,37.11306542,9.43,'11111222,11111222,11111222' 
TABS,ioos:station:wmo:42045:1,2009-12-03T15:00:00Z,26.2168,-96.4998,4.0,8.231652325,28.99348079,10.23,'11111222,11111222,11111222' 
TABS,ioos:station:wmo:42045:1,2009-12-03T15:30:00Z,26.2168,-96.4998,4.0,7.702596965,38.35746502,10.37,'11111222,11111222,11111222' 
TABS,ioos:station:wmo:42045:1,2009-12-03T16:00:00Z,26.2168,-96.4998,4.0,7.020498558,50.66432653,9.26,'11111222,11111222,11111222' 
TABS,ioos:station:wmo:42045:1,2009-12-03T16:30:00Z,26.2168,-96.4998,4.0,6.090730662,39.93775672,8.34,'11111222,11111222,11111222' 
TABS,ioos:station:wmo:42045:1,2009-12-03T17:00:00Z,26.2168,-96.4998,4.0,6.314499188,44.80720246,9.16,'11111222,11111222,11111222' 
TABS,ioos:station:wmo:42045:1,2009-12-03T17:30:00Z,26.2168,-96.4998,4.0,7.284023613,39.87576664,9.62,'11111222,11111222,11111222' 
TABS,ioos:station:wmo:42045:1,2009-12-03T18:00:00Z,26.2168,-96.4998,4.0,6.92301235,44.3559401,8.85,'11111222,11111222,11111222' 
TABS,ioos:station:wmo:42045:1,2009-12-03T18:30:00Z,26.2168,-96.4998,4.0,6.440256206,39.7710952,8.58,'11111222,11111222,11111222' 
TABS,ioos:station:wmo:42045:1,2009-12-03T19:00:00Z,26.2168,-96.4998,4.0,6.90513577,40.12398656,8.86,'11111222,11111222,11111222' 
TABS,ioos:station:wmo:42045:1,2009-12-03T19:30:00Z,26.2168,-96.4998,4.0,6.695446214,39.18072702,8.71,'11111222,11111222,11111222' 
TABS,ioos:station:wmo:42045:1,2009-12-03T20:00:00Z,26.2168,-96.4998,4.0,6.420007788,28.16145631,9.3,'11111222,11111222,11111222' 
TABS,ioos:station:wmo:42045:1,2009-12-03T20:30:00Z,26.2168,-96.4998,4.0,6.60367322,24.89606849,8.76,'11111222,11111222,11111222' 
TABS,ioos:station:wmo:42045:1,2009-12-03T21:00:00Z,26.2168,-96.4998,4.0,7.226354544,32.56820259,9.41,'11111222,11111222,11111222' 
TABS,ioos:station:wmo:42045:1,2009-12-03T21:30:00Z,26.2168,-96.4998,4.0,7.40297913,24.24512283,9.66,'11111222,11111222,11111222' 
TABS,ioos:station:wmo:42045:1,2009-12-03T22:00:00Z,26.2168,-96.4998,4.0,7.40622711,31.86569272,10.13,'11111222,11111222,11111222' 
TABS,ioos:station:wmo:42045:1,2009-12-03T22:30:00Z,26.2168,-96.4998,4.0,7.535681787,26.22474909,10.29,'11111222,11111222,11111222' 
TABS,ioos:station:wmo:42045:1,2009-12-03T23:00:00Z,26.2168,-96.4998,4.0,7.372218119,34.16399778,9.22,'11111222,11111222,11111222' 
TABS,ioos:station:wmo:42045:1,2009-12-03T23:30:00Z,26.2168,-96.4998,4.0,7.318387801,32.38684192,9.43,'11111222,11111222,11111222' 
TABS,ioos:station:wmo:42045:1,2009-12-04T00:00:00Z,26.2168,-96.4998,4.0,7.132404924,37.48013157,9.65,'11111222,11111222,11111222' 
TABS,ioos:station:wmo:42045:1,2009-12-04T00:30:00Z,26.2168,-96.4998,4.0,7.094744534,47.97044597,9.38,'11111222,11111222,11111222' 
TABS,ioos:station:wmo:42045:1,2009-12-04T01:00:00Z,26.2168,-96.4998,4.0,6.81648003,41.31213356,8.78,'11111222,11111222,11111222' 
TABS,ioos:station:wmo:42045:1,2009-12-04T01:30:00Z,26.2168,-96.4998,4.0,6.980257875,36.37710039,8.94,'11111222,11111222,11111222' 
TABS,ioos:station:wmo:42045:1,2009-12-04T02:00:00Z,26.2168,-96.4998,4.0,6.338343632,46.66181475,8.87,'11111222,11111222,11111222' 
TABS,ioos:station:wmo:42045:1,2009-12-04T02:30:00Z,26.2168,-96.4998,4.0,6.41611253,50.62858377,8.54,'11111222,11111222,11111222' 
TABS,ioos:station:wmo:42045:1,2009-12-04T03:00:00Z,26.2168,-96.4998,4.0,5.972947346,50.3660489,8.26,'11111222,11111222,11111222' 
TABS,ioos:station:wmo:42045:1,2009-12-04T03:30:00Z,26.2168,-96.4998,4.0,5.933573965,43.97543743,8.04,'11111222,11111222,11111222' 
TABS,ioos:station:wmo:42045:1,2009-12-04T04:00:00Z,26.2168,-96.4998,4.0,6.109042478,48.84904166,8.02,'11111222,11111222,11111222' 
TABS,ioos:station:wmo:42045:1,2009-12-04T04:30:00Z,26.2168,-96.4998,4.0,6.625624499,44.81624104,8.44,'11111222,11111222,11111222' 
TABS,ioos:station:wmo:42045:1,2009-12-04T05:00:00Z,26.2168,-96.4998,4.0,6.53723183,49.21775657,8.8,'11111222,11111222,11111222' 
TABS,ioos:station:wmo:42045:1,2009-12-04T05:30:00Z,26.2168,-96.4998,4.0,7.922827778,43.3631111,10.28,'11111222,11111222,11111222' 
TABS,ioos:station:wmo:42045:1,2009-12-04T06:00:00Z,26.2168,-96.4998,4.0,7.545395947,47.5778593,9.59,'11111222,11111222,11111222' 
TABS,ioos:station:wmo:42045:1,2009-12-04T06:30:00Z,26.2168,-96.4998,4.0,8.564724164,51.68463393,10.71,'11111222,11111222,11111222' 
TABS,ioos:station:wmo:42045:1,2009-12-04T07:00:00Z,26.2168,-96.4998,4.0,8.561833916,56.14254811,10.85,'11111222,11111222,11111222' 
TABS,ioos:station:wmo:42045:1,2009-12-04T07:30:00Z,26.2168,-96.4998,4.0,9.006647545,52.4427109,11.28,'11111222,11111222,11111222' 
TABS,ioos:station:wmo:42045:1,2009-12-04T08:00:00Z,26.2168,-96.4998,4.0,9.238235762,53.5391039,11.11,'11111222,11111222,11111222' 
TABS,ioos:station:wmo:42045:1,2009-12-04T08:30:00Z,26.2168,-96.4998,4.0,10.18314293,48.1044723,12.43,'11111222,11111222,11111222' 
TABS,ioos:station:wmo:42045:1,2009-12-04T09:00:00Z,26.2168,-96.4998,4.0,10.57762261,49.63926408,12.91,'11111222,11111222,11111222' 
TABS,ioos:station:wmo:42045:1,2009-12-04T09:30:00Z,26.2168,-96.4998,4.0,10.35577134,48.3661371,13.17,'11111222,11111222,11111222' 
TABS,ioos:station:wmo:42045:1,2009-12-04T10:00:00Z,26.2168,-96.4998,4.0,9.634651006,51.78566047,11.76,'11111222,11111222,11111222' 
TABS,ioos:station:wmo:42045:1,2009-12-04T10:30:00Z,26.2168,-96.4998,4.0,8.961657213,54.76670606,11.46,'11111222,11111222,11111222' 
TABS,ioos:station:wmo:42045:1,2009-12-04T11:00:00Z,26.2168,-96.4998,4.0,9.427162882,56.15788113,11.83,'11111222,11111222,11111222' 
TABS,ioos:station:wmo:42045:1,2009-12-04T11:30:00Z,26.2168,-96.4998,4.0,9.069785003,54.78510432,10.93,'11111222,11111222,11111222' 
TABS,ioos:station:wmo:42045:1,2009-12-04T12:00:00Z,26.2168,-96.4998,4.0,8.78251103,35.49946521,11.76,'11111222,11111222,11111222' 
TABS,ioos:station:wmo:42045:1,2009-12-04T12:30:00Z,26.2168,-96.4998,4.0,9.230926281,30.17573479,11.18,'11111222,11111222,11111222' 
TABS,ioos:station:wmo:42045:1,2009-12-04T13:00:00Z,26.2168,-96.4998,4.0,9.449089903,24.9103927,11.0,'11111222,11111222,11111222' 
TABS,ioos:station:wmo:42045:1,2009-12-04T13:30:00Z,26.2168,-96.4998,4.0,9.528536089,22.39295495,11.65,'11111222,11111222,11111222' 
TABS,ioos:station:wmo:42045:1,2009-12-04T14:00:00Z,26.2168,-96.4998,4.0,9.660227741,26.03427852,11.7,'11111222,11111222,11111222' 
TABS,ioos:station:wmo:42045:1,2009-12-04T14:30:00Z,26.2168,-96.4998,4.0,10.473223,21.86210084,12.6,'11111222,11111222,11111222' 
TABS,ioos:station:wmo:42045:1,2009-12-04T15:00:00Z,26.2168,-96.4998,4.0,9.506487259,15.05928897,11.44,'11111222,11111222,11111222' 
TABS,ioos:station:wmo:42045:1,2009-12-04T15:30:00Z,26.2168,-96.4998,4.0,8.639589111,7.782858157,10.94,'11111222,11111222,11111222' 
TABS,ioos:station:wmo:42045:1,2009-12-04T16:00:00Z,26.2168,-96.4998,4.0,15.18182137,349.1413707,18.17,'11111222,11111222,11111222' 
TABS,ioos:station:wmo:42045:1,2009-12-04T16:30:00Z,26.2168,-96.4998,4.0,15.73822417,350.8965925,19.12,'11111222,11111222,11111222' 
TABS,ioos:station:wmo:42045:1,2009-12-04T17:00:00Z,26.2168,-96.4998,4.0,15.49673837,344.7349783,18.8,'11111222,11111222,11111222' 
TABS,ioos:station:wmo:42045:1,2009-12-04T17:30:00Z,26.2168,-96.4998,4.0,17.13035318,346.1177081,20.65,'11111222,11111222,11111222' 
TABS,ioos:station:wmo:42045:1,2009-12-04T18:00:00Z,26.2168,-96.4998,4.0,16.6339412,339.2986588,21.25,'11111222,11111222,11111222' 